Regional Weather Roundup
Issued by NWS Kansas City/Pleasant Hill, MO

Home | Current Version | Previous Version | Text Only | Print | Product List | Glossary On
Versions: 1 2 3 4 5 6 7 8 9 10 11 12 13 14 15 16 17 18 19 20 21 22 23 24 25 26 27 28 29 30 31 32 33 34 35 36 37 38 39 40 41 42 43 44 45 46 47 48 49 50
000
ASUS43 KEAX 210710
RWREAX

WEATHER ROUNDUP FOR EASTERN KANSAS AND NORTHWEST MISSOURI
NATIONAL WEATHER SERVICE KANSAS CITY/PLEASANT HILL MO
100 AM CST TUE NOV 21 2017

KSZ040-057-103>105-MOZ028-029-037-043-210800-
...KANSAS CITY METROPOLITAN AREA...

CITY           SKY/WX    TMP DP  RH WIND       PRES   REMARKS
K.C. INTL      PTCLDY    49  31  49 SW10      29.74S
K.C. DOWNTOWN  PTCLDY    53  30  41 SW13      29.75S
LEES SUMMIT    CLEAR     50  31  48 SW15      29.76S
OLATHE - IXD   PTCLDY    50  30  46 SW16      29.77S
OLATHE - OJC   CLOUDY    47  31  53 SW8       29.76S
LAWRENCE       PTCLDY    52  31  44 SW8       29.76S

$$

MOZ001>008-011>017-020>025-030>033-038>040-044>046-053-054-210800-
...NORTHERN AND CENTRAL MISSOURI...

CITY           SKY/WX    TMP DP  RH WIND       PRES   REMARKS
ST. JOSEPH     CLOUDY    45  31  58 SW6       29.73S
MOSBY          SUNNY     50  30  46 S3        29.75F
WARRENSBURG    CLEAR     48  32  53 S7        29.78S
WHITEMAN AFB   CLEAR     48  31  52 SW13      29.74S
CLINTON        CLEAR     50  32  50 MISG      29.80F
SEDALIA        CLEAR     52  33  48 SW17      29.80S
WARSAW         NOT AVBL
CHILLICOTHE      N/A     45  31  58 S6        29.75S
KIRKSVILLE     PTCLDY    49  32  52 SW10      29.73S

$$

MOZ041-047>049-056>058-063>065-088>090-097-210800-
...EASTERN AND SOUTHERN MISSOURI...

CITY           SKY/WX    TMP DP  RH WIND       PRES   REMARKS
ST. LOUIS INTL CLOUDY    47  29  49 S9        29.85F
SPIRIT OF STL  PTCLDY    49  29  46 S7        29.84F
COLUMBIA       PTCLDY    44  30  57 S10       29.80F
JEFFERSON CITY CLEAR     50  30  46 SE5       29.83F
ROLLA          CLOUDY    45  29  53 S10       29.85F
OSAGE BEACH    CLEAR     50  31  48 SW10      29.83F
SPRINGFIELD    CLEAR     45  32  60 S12       29.84F
BRANSON        MOCLDY    48  30  49 CALM      29.89F
JOPLIN         PTCLDY    50  33  52 S15       29.84F
WEST PLAINS    CLOUDY    44  28  53 S7        29.91F

$$

IAZ060-094-KSZ022-034>040-054-083-096-NEZ052-066-093-210800-
...KANSAS...SOUTHEAST NEBRASKA AND IOWA...

CITY           SKY/WX    TMP DP  RH WIND       PRES   REMARKS
TOPEKA         PTCLDY    54  32  43 SW6       29.74S
MANHATTAN      PTCLDY    51  30  44 SW7       29.72F
EMPORIA        PTCLDY    48  30  49 S10       29.77R
CHANUTE        CLOUDY    49  31  49 S14       29.80F
WICHITA        CLOUDY    41  31  67 S8        29.79S
OMAHA          CLOUDY    38  28  67 CALM      29.72R
LINCOLN        CLOUDY    33  26  75 SW3       29.75R
FALLS CITY     CLOUDY    47  28  47 CALM      29.71S
LAMONI         CLOUDY    46  30  53 W8        29.70R
DES MOINES     CLOUDY    46  29  51 W8        29.67S

$$




USA.gov is the U.S. government's official web portal to all federal, state and local government web resources and services.